Regional Weather Roundup
Issued by NWS Upton, NY

Current Version | Previous Version | Graphics & Text | Print | Product List | Glossary Off
Versions: 1 2 3 4 5 6 7 8 9 10 11 12 13 14 15 16 17 18 19 20 21 22 23 24 25 26 27 28 29 30 31 32 33 34 35 36 37 38 39 40 41 42 43 44 45 46 47 48 49 50

000
ASUS41 KOKX 250608
RWROKX

REGIONAL WEATHER ROUNDUP
NATIONAL WEATHER SERVICE NEW YORK NY
200 AM EDT SUN SEP 25 2016

NOTE: "FAIR" INDICATES FEW OR NO CLOUDS BELOW 12,000 FEET WITH NO
SIGNIFICANT WEATHER AND/OR OBSTRUCTIONS TO VISIBILITY.

NYZ071-072-176-178-NJZ106-104-250700-
NEW YORK CITY METRO AREA

CITY           SKY/WX    TMP DP  RH WIND       PRES   REMARKS
Central Park   CLEAR     58  43  57 VRB5      30.19R
LaGuardia APRT CLEAR     62  44  51 N9        30.15R
Kennedy INTL   PTCLDY    59  39  47 N13       30.16R
Newark/Liberty CLEAR     56  43  61 N8        30.16R
Bronx Bot Gard   N/A     57  41  54 NW1       30.15R
Wall St Helipt CLEAR     64  50  59 E6        30.17R
Teterboro      CLEAR     55  42  61 NW3       30.16R
$$

NYZ177-179-078>081-250700-
LONG ISLAND NEW YORK

CITY           SKY/WX    TMP DP  RH WIND       PRES   REMARKS
Farmingdale    CLEAR     57  42  57 N6        30.15R
MacArthur/ISP  CLEAR     56  44  64 N5        30.13R
Shirley        CLEAR     51  46  83 N3        30.14R
Riverhead      NOT AVBL
Westhampton    CLEAR     41  39  93 N7        30.15R
Southampton      N/A     55  46  71 N3        30.09R
Bridgehampton    N/A     52  46  82 N1        29.97S
East Hampton   FAIR      46  44  93 CALM      30.12R
Montauk          N/A     60  42  51 N8        30.12S
$$

NYZ052-065-067-250700-
HUDSON VALLEY

CITY           SKY/WX    TMP DP  RH WIND       PRES   REMARKS
White Plains   CLEAR     51  40  65 N8        30.15R
Newburgh       CLEAR     46  43  87 VRB6      30.18S
Montgomery     CLEAR     46  43  89 CALM      30.17S
Poughkeepsie   CLEAR     43  41  93 CALM      30.16S
Albany         CLEAR     45  39  79 W3        30.18R
$$

NJZ001-105-106-008-010-013-015-019>022-104-250700-
NEW JERSEY

CITY           SKY/WX    TMP DP  RH WIND       PRES   REMARKS
Newark/Liberty CLEAR     56  43  61 N8        30.16R
Teterboro      CLEAR     55  42  61 NW3       30.16R
Caldwell       CLEAR     51  47  86 CALM      30.18R
Morristown     FLURRIES  43  43 100 CALM      30.17R
Somerville     CLEAR     47  44  90 NW5       30.16R
Linden         NOT AVBL
Sussex         CLEAR     43  42  97 CALM      30.18S
Abdover          N/A     45  43  93 CALM      30.19R
Trenton        CLEAR     54  42  64 N8        30.16R
Millville      CLEAR     51  51 100 CALM      30.15R
Atlantic City  CLEAR     53  50  89 CALM      30.14S
Wrightstown    CLEAR     51  46  82 N7        30.13R
Toms River     CLEAR     48  46  93 CALM      30.15R
Belmar         CLEAR     55  48  77 N8        30.16R
$$

PAZ047>061-062-071-250700-
EASTERN PENNSYLVANIA

CITY           SKY/WX    TMP DP  RH WIND       PRES   REMARKS
Philadelphia   CLEAR     60  44  55 N12       30.17R
Allentown      CLEAR     52  40  63 N7        30.19R
Scranton       CLEAR     46  43  89 E5        30.20S
$$

CTZ002-004>006-009-010-012-RIZ004-006-007-MAZ004-011-015-250700-
SOUTHERN NEW ENGLAND
 IN CT

CITY           SKY/WX    TMP DP  RH WIND       PRES   REMARKS
Bradley INTL   CLEAR     44  41  89 N6        30.15R
Hartford       CLEAR     48  46  93 CALM      30.14R
Danbury        CLEAR     43  40  89 SW3       30.17R
Wtrbury/Oxford   N/A     46  37  71 N5        30.16S
Bridgeport     CLEAR     56  40  55 N3        30.14
Meriden        CLEAR     46  43  89 SE3       30.14S
New Haven      CLEAR     50  42  74 N6        30.14R
Chester        FAIR      52  41  66 CALM      30.13S
Groton         CLEAR     51  45  79 N5        30.12R
Wilimantic     CLOUDY    46  45  96 CALM      30.14S

 IN RI

CITY           SKY/WX    TMP DP  RH WIND       PRES   REMARKS
Providence     NOT AVBL
Block Island   CLEAR     56  45  66 NW6       30.11S
Westerly       CLEAR     46  42  86 CALM      30.12S
 IN MA

CITY           SKY/WX    TMP DP  RH WIND       PRES   REMARKS
Boston         CLEAR     54  39  57 NW10      30.09S
Worcester      CLEAR     50  35  56 NW10      30.12R
Westfield      CLEAR     43  41  93 CALM      30.14R
Provincetown   CLEAR     58  43  57 N17G26    30.07R
Nantucket      CLEAR     59  38  45 NW17G24   30.06S
$$

ANZ330-335-338-340-345-350-353-355-250700-
COASTAL MARINE OBSERVATIONS


STATION/POSITION TIME  SKY/WX   TEMP    WIND        PRES    VSBY  WAVE
                                AIR SEA DIR/SP/G                  HT/PER
                 (UTC)          (F)     (DEG/KT/KT) (MB)    (MI)  (FT/S)
NY HARB ENTRANCE 0550            64 72  360/ 17/ 21 1020.2          4/10
20S FIRE ISLAND  0550            65 71  350/ 16/ 19 1019.6          4/ 9
GREAT SOUTH BAY  0530            61 72  350/  8/ 10   N/A
23 SSW MONTAUK P 0550            63 68  350/ 12/ 17 1019.7          4/11
15 E BARNEGAT LI 0530               71                N/A           4/12
HUDSON CANYON    0450            65 69              1019.5          4/11
KINGS POINT      0548                                 N/A
EXECUTION ROCKS  0545            61     350/ 12/ 16   N/A
CENTRAL LI SOUND 0515            62 73  360/ 16/ 19   N/A           1/ 2
EASTERN LI SOUND NOT AVBL
ROBBINS REEF     0548                    10/  9/ 11   N/A
$$


>>>>>>>>>>>>>>>>>>>>>>>>>>>> KEY <<<<<<<<<<<<<<<<<<<<<<<<<<<
>                                                          <
>     SKY/WX - Sky Condition/Present Weather               <
>     TMP    - Temperature in Fahrenheit                   <
>     DP     - Dew Point in Fahrenheit                     <
>     RH     - Relative Humidity in Percent                <
>     WIND   - Direction (from) and Speed in MPH           <
>     PRES   - Mean Sea Level Pressure (inches of Hg)      <
>     WCI    - Wind Chill Index                            <
>     VSB    - VISIBILITY IN MILES                         <
>     HX     - HEAT INDEX                                  <
>     TC     - TEMPERATURE IN CELSIUS                      <
>     VRB    - VARIABLE WIND DIRECTION                     <
>                                                          <
>>>>>>>>>>>>>>>>>>>>>>>>>>>> KEY <<<<<<<<<<<<<<<<<<<<<<<<<<<



USA.gov is the U.S. government's official web portal to all federal, state and local government web resources and services.